Showing default

SYNCOM 3, 858

Orbit data source: Space-Track

SYNCOM 3, 858 is a payload satellite owned by GSFC (US) in GEO that was launched on Wed, 19 Aug 1964 UTC via a THOR DELTA D launch vehicle from the Air Force Eastern Test Range (AFETR). Payload-class satellites include a variety of spacecraft equipped with specific instruments for various scientific and technological missions. These include communications satellites like Starlink; space stations such as the ISS; scientific satellites like the Hubble; Earth observation satellites from companies like Planet Labs, Umbra, and HawkEye 360; GPS; miniature CubeSats for education and research; and military/defense satellites.

Not visible in the next 10 days
Identifier
858, 1964-047A
Orbit
GEO
Country
Flag of USUS
Related business
Manufacturer
Hughes
Mission
Non-operational spacecraft
Bus & Motor
HS-301, SR-12-1
Mass
66 kg wet, 33 kg dry
Launch date (UTC)
1964-08-19 (62 years ago)
Launch vehicle
THOR DELTA D
Launch site
Air Force Eastern Test Range (AFETR)
Object type
Payload
Rocket body
Debris
Shape & HBR
Unknown
Radar Cross Section
Large (>1 m²)

Expand to show TLE details & history
Last TLE update: 9 hours ago

TLE from 9 hours ago
0 SYNCOM 3
1   858U 64047A   26150.73134887 -.00000084  00000-0  00000+0 0  9999
2   858   6.9254  64.6752 0002794 164.6549 354.4351  1.00401230 53291
Epoch: 2026-05-30T17:33Z
TLE epoch observation values (Epoch: 2026-05-30T17:33:08.542Z)
Latitude
2.44425°
Longitude
72.37935°
Altitude
35,737.807 km
Speed
3.077 km/s
True Right ascension
14h 55m 37s
True Declination
2° 26' 30"
Sunlit
Object was in daylight at epoch
Visualization orbit readout
Latitude
Unknown
Longitude
Unknown
Altitude
Unknown
Speed
Unknown
Apparent Right ascension
Unknown
Apparent Declination
Unknown
Sunlit
N/A
Visualization observer readout
Local Sidereal Time
11:37:39
Azimuth
Unknown
Elevation
Unknown
Doppler factor
Unknown
Orbital elements
Apogee altitude
35,763.165 km
Perigee altitude
35,739.623 km
Semi-major axis
42,129.531 km
Eccentricity
0.00028
Inclination
6.9254°
RAAN
64.6752°
Arg. of periapsis
164.6549°
True anomaly
354.43199°
Mean anomaly
354.4351°
Eccentric anomaly
354.43355°
Mean motion
0.25099 °/min
Orbital period
1,434.3 mins
BSTAR
0
Loading maneuver chart data...
Computing Atmospheric mass density...
Loading historical data...
Loading historical data...
Loading historical data...
Loading historical data...
Loading historical data...
Loading historical data...
Loading historical data...
Other satellites on launch #47 in the year 1964 (1964-08-19 UTC)

Documentation

Showing up to 5 results
|